[[{"header":{"parameterUnit":"m.s-1","parameterCategory":2,"la1":30.2991,"la2":30.254,"lo1":-89.0895,"lo2":-89.0444,"dy":0.0017,"dx":0.0017,"nx":28,"ny":28,"refTime":"2023-08-24T21:00:00:Z","depth":"0","parameterNumber":2,"parameterNumberName":"U-component_of_CURRENTS"},"data":[0,0,0,0,0,0,0,0,0,0,0,0,0,0,0,0,0,0,0,0,0,0,0,0,0,0,0,0,0,0,0,0,0,0,0,0,0,0,0,0,0,0,0,0,0,0,0,0,0,0,0,0,0,0,0,0,0,0,-0.1637,-0.1638,0,-0.1672,-0.1672,-0.1672,-0.1591,-0.1588,-0.1586,-0.1584,-0.1522,-0.1523,-0.1523,0,0,0,0,0,0,0,0,0,0,0,0,0,-0.1544,-0.1545,-0.1637,-0.1638,-0.1639,-0.1672,-0.1672,-0.1672,-0.1591,-0.1588,-0.1586,-0.1583,-0.1522,-0.1523,-0.1523,0,0,0,0,0,0,0,0,0,0,0,0,0,-0.1577,-0.1546,-0.1636,-0.1606,-0.1604,-0.1672,-0.1672,-0.1672,-0.1591,-0.1588,-0.1585,-0.1582,-0.1522,-0.1522,-0.1523,-0.1589,0,0,-0.1524,-0.1525,0,0,0,0,0,0,0,0,-0.1575,-0.158,-0.161,-0.1608,-0.1606,-0.1629,-0.1617,-0.1642,-0.1592,-0.1591,-0.1584,-0.1581,-0.1555,-0.1552,-0.156,-0.1586,-0.1584,-0.1524,-0.1525,-0.1525,-0.1525,0,0,0,0,0,0,0,-0.1573,-0.1578,-0.1645,-0.1611,-0.1609,-0.1607,-0.1607,-0.1622,-0.1584,-0.159,-0.1586,-0.16,-0.1552,-0.1559,-0.1557,-0.1583,-0.1524,-0.1525,-0.1525,-0.1525,-0.1717,-0.1722,0,0,0,0,0,0,-0.1581,-0.1576,-0.1644,-0.1647,-0.1589,-0.1611,-0.1611,-0.162,-0.1586,-0.158,-0.1602,-0.1596,-0.156,-0.1557,-0.1555,-0.1702,-0.1525,-0.1525,-0.1526,-0.1713,-0.1718,-0.1724,0,0,0,0,0,0,-0.1579,-0.1587,-0.1643,-0.1616,-0.1624,-0.1616,-0.1627,-0.1623,-0.1628,-0.1597,-0.1587,-0.1612,-0.1558,-0.1554,-0.1599,-0.1695,-0.1526,-0.1526,-0.1707,-0.1714,-0.1721,-0.195,0,0,0,0,0,0,-0.1576,-0.1586,-0.1594,-0.1617,-0.1626,-0.1706,-0.1631,-0.1626,-0.1644,-0.1636,-0.1603,-0.1594,-0.1555,-0.1599,-0.1599,-0.1693,-0.1526,-0.1701,-0.171,-0.1719,-0.1936,-0.1964,-0.1987,0,0,0,0,0,-0.1572,-0.1612,-0.1594,-0.1603,-0.1638,-0.171,-0.1715,-0.1694,-0.1648,-0.168,-0.1662,-0.1595,-0.1656,-0.1603,-0.1603,-0.1698,-0.1696,-0.1708,-0.1718,-0.1924,-0.1958,-0.1987,0,0,0,0,0,0,-0.158,-0.1609,-0.1589,-0.1633,-0.1675,-0.1698,-0.1721,-0.1712,-0.1723,-0.1701,-0.1654,-0.1648,-0.1725,-0.1685,-0.1628,-0.1783,-0.1668,-0.1679,-0.1825,-0.1856,-0.1882,-0.1843,-0.1527,0,0,0,0,0,-0.1587,-0.1611,-0.1652,-0.1684,-0.1706,-0.1714,-0.1736,-0.1732,-0.1748,-0.1747,-0.1732,-0.173,-0.1776,-0.1789,-0.1804,-0.1888,-0.1788,-0.1951,-0.1977,-0.1999,-0.1971,-0.1936,-0.1955,-0.1759,-0.1759,-0.1759,0,0,-0.1596,-0.1616,-0.1627,-0.1686,-0.17,-0.1778,-0.1717,-0.1767,-0.1837,-0.1743,-0.1815,-0.1815,-0.1818,-0.1917,-0.1948,-0.1891,-0.2007,-0.2013,-0.2032,-0.199,-0.1949,-0.1967,-0.1983,-0.1767,-0.1765,-0.1764,0,0,-0.1636,-0.1647,-0.168,-0.1738,-0.1787,-0.182,-0.1843,-0.1884,-0.1902,-0.1988,-0.1952,-0.2009,-0.2053,-0.2092,-0.2116,-0.2294,-0.2143,-0.2305,-0.2407,-0.2378,-0.2392,-0.2403,-0.2305,-0.2305,-0.232,-0.2321,-0.2321,0,-0.1639,-0.1707,-0.1708,-0.1778,-0.1849,-0.1849,-0.1943,-0.1987,-0.204,-0.2065,-0.2033,-0.2125,-0.2146,-0.227,-0.2348,-0.2354,-0.2264,-0.2293,-0.2407,-0.2416,-0.2423,-0.232,-0.2317,-0.2333,-0.2332,-0.233,-0.2329,0,-0.1712,-0.1789,-0.1829,-0.1918,-0.1989,-0.2082,-0.2154,-0.2204,-0.2226,-0.2253,-0.235,-0.2379,-0.2409,-0.2477,-0.2475,-0.2573,-0.2467,-0.2441,-0.2318,-0.2456,-0.2339,-0.2332,-0.2351,-0.2346,-0.2343,-0.234,0,0,-0.1686,-0.1847,-0.1867,-0.1936,-0.2088,-0.2141,-0.228,-0.2393,-0.2413,-0.2497,-0.253,-0.2697,-0.2644,-0.2667,-0.2676,-0.269,-0.2713,-0.2595,-0.2588,-0.2477,-0.2572,-0.249,-0.2472,-0.2689,-0.2689,-0.2689,-0.247,0,-0.1756,-0.1911,-0.1992,-0.2163,-0.2263,-0.2343,-0.2448,-0.2533,-0.2574,-0.2593,-0.2658,-0.2689,-0.2739,-0.2731,-0.2774,-0.2708,-0.2702,-0.2769,-0.247,-0.246,-0.2354,-0.2466,-0.2371,-0.2166,-0.2461,-0.246,-0.2459,0,-0.182,-0.1922,-0.2098,-0.2272,-0.2313,-0.2404,-0.2523,-0.2615,-0.2668,-0.2679,-0.2728,-0.2708,-0.2787,-0.2765,-0.2742,-0.2765,-0.2685,-0.2635,-0.2624,-0.2448,-0.2366,-0.2078,-0.214,-0.213,-0.2446,-0.2447,-0.2448,0,-0.1795,-0.2008,-0.2146,-0.2221,-0.24,-0.2463,-0.2545,-0.2624,-0.2658,-0.2693,-0.2666,-0.2732,-0.2704,-0.2681,-0.2629,-0.2657,-0.2512,-0.253,-0.2376,-0.2364,-0.2172,-0.2145,-0.2165,-0.2474,-0.2475,-0.2475,-0.2476,0,-0.187,-0.197,-0.2127,-0.2199,-0.2296,-0.2429,-0.2491,-0.2555,-0.2599,-0.2589,-0.2673,-0.2636,-0.2674,-0.2607,-0.2576,-0.2443,-0.2471,-0.238,-0.2319,-0.2252,-0.2237,-0.2125,-0.2162,-0.2467,-0.2469,-0.2471,-0.2472,0,-0.1817,-0.195,-0.2074,-0.2243,-0.2286,-0.233,-0.2444,-0.2453,-0.2522,-0.2494,-0.2499,-0.2531,-0.2453,-0.2448,-0.235,-0.2336,-0.2192,-0.2172,-0.2065,-0.1999,-0.1887,-0.194,-0.1827,-0.1776,-0.1972,-0.1969,-0.1966,0,-0.1808,-0.1871,-0.203,-0.2063,-0.2135,-0.2222,-0.2257,-0.2383,-0.2381,-0.2411,-0.236,-0.2314,-0.2238,-0.2094,-0.2046,-0.1937,-0.1997,-0.18,-0.1892,-0.1866,-0.1879,-0.1929,-0.19,-0.171,-0.1705,-0.1702,-0.1699,0,-0.175,-0.1788,-0.1864,-0.1937,-0.199,-0.2049,-0.211,-0.2109,-0.2206,-0.2186,-0.2123,-0.2074,-0.195,-0.182,-0.1718,-0.1665,-0.1781,-0.172,-0.1731,-0.1712,-0.1725,-0.1649,-0.1831,-0.1666,-0.1669,-0.1672,-0.1673,-0.1675,-0.165,-0.1656,-0.1739,-0.1787,-0.1842,-0.1859,-0.185,-0.1897,-0.1885,-0.1836,-0.1862,-0.1758,-0.1693,-0.1543,-0.1482,-0.139,-0.1485,-0.1388,-0.1453,-0.1503,-0.1488,-0.1581,-0.1346,-0.1347,-0.1348,-0.135,-0.135,0,-0.1538,-0.1554,-0.1587,-0.1651,-0.1647,-0.1721,-0.1726,-0.1682,-0.1616,-0.1595,-0.1531,-0.1448,-0.1329,-0.1303,-0.1227,-0.1169,-0.1167,-0.116,-0.1228,-0.1211,-0.1292,-0.1318,-0.1022,-0.1022,-0.1022,-0.1022,-0.1022,-0.1022,-0.148,-0.1466,-0.1483,-0.1451,-0.1473,-0.1424,-0.1391,-0.1331,-0.1292,-0.1185,-0.1139,-0.1132,-0.1147,-0.126,-0.1181,-0.1116,-0.1123,-0.1063,-0.1115,-0.1211,-0.1239,-0.1266,-0.1301,-0.1006,-0.1006,-0.0969,-0.0969,-0.0969]},{"header":{"parameterUnit":"m.s-1","parameterCategory":2,"la1":30.2991,"la2":30.254,"lo1":-89.0895,"lo2":-89.0444,"dy":0.0017,"dx":0.0017,"nx":28,"ny":28,"refTime":"2023-08-24T21:00:00:Z","depth":"0","parameterNumber":3,"parameterNumberName":"V-component_of_CURRENTS"},"data":[0,0,0,0,0,0,0,0,0,0,0,0,0,0,0,0,0,0,0,0,0,0,0,0,0,0,0,0,0,0,0,0,0,0,0,0,0,0,0,0,0,0,0,0,0,0,0,0,0,0,0,0,0,0,0,0,0,0,0.0533,0.0534,0,0.0616,0.0617,0.0618,0.0678,0.0679,0.068,0.068,0.0738,0.0739,0.074,0,0,0,0,0,0,0,0,0,0,0,0,0,0.0463,0.0463,0.0533,0.0534,0.0535,0.0616,0.0617,0.0618,0.0678,0.0679,0.068,0.068,0.0738,0.0739,0.074,0,0,0,0,0,0,0,0,0,0,0,0,0,0.0513,0.0464,0.0533,0.0576,0.0581,0.0616,0.0617,0.0618,0.0678,0.0679,0.068,0.0681,0.0738,0.0739,0.074,0.0732,0,0,0.0745,0.0746,0,0,0,0,0,0,0,0,0.051,0.0516,0.0568,0.0573,0.0578,0.0638,0.0614,0.0655,0.0678,0.064,0.068,0.0681,0.0702,0.0707,0.072,0.0735,0.0737,0.0745,0.0746,0.0747,0.0747,0,0,0,0,0,0,0,0.0507,0.0513,0.0565,0.0569,0.0576,0.0603,0.0611,0.0622,0.0664,0.0644,0.0648,0.0659,0.0705,0.0718,0.0721,0.0738,0.0745,0.0746,0.0747,0.0748,0.0762,0.0762,0,0,0,0,0,0,0.0495,0.0509,0.0563,0.0568,0.0547,0.0603,0.0612,0.0618,0.0665,0.0673,0.0658,0.0661,0.0715,0.072,0.0724,0.0704,0.0747,0.0748,0.0749,0.0763,0.0762,0.0762,0,0,0,0,0,0,0.0493,0.0499,0.0559,0.0541,0.0551,0.0604,0.0609,0.0619,0.0629,0.0676,0.0684,0.0658,0.0716,0.0722,0.0724,0.0707,0.0749,0.075,0.0763,0.0763,0.0762,0.0672,0,0,0,0,0,0,0.0491,0.0498,0.049,0.054,0.0552,0.0552,0.0609,0.062,0.0635,0.064,0.0679,0.0686,0.0717,0.0721,0.0725,0.071,0.0751,0.0764,0.0763,0.0762,0.0675,0.0668,0.0662,0,0,0,0,0,0.0488,0.0463,0.0489,0.0495,0.0542,0.055,0.0556,0.0598,0.0634,0.0616,0.0656,0.0685,0.0719,0.0721,0.0727,0.0711,0.0764,0.0763,0.0762,0.0678,0.0669,0.0662,0,0,0,0,0,0,0.0421,0.0469,0.0498,0.0488,0.0508,0.056,0.0549,0.0588,0.0608,0.0612,0.067,0.0677,0.0677,0.0705,0.0707,0.0715,0.075,0.0749,0.0684,0.0676,0.0669,0.0667,0.0752,0,0,0,0,0,0.0406,0.0404,0.045,0.044,0.0446,0.0499,0.0509,0.0534,0.0565,0.0576,0.0609,0.0647,0.0676,0.0683,0.0706,0.0699,0.0742,0.0697,0.069,0.0684,0.0687,0.0749,0.0748,0.0758,0.0758,0.0758,0,0,0.038,0.0404,0.0405,0.0426,0.0449,0.0426,0.0505,0.0502,0.0496,0.0576,0.0569,0.0617,0.067,0.067,0.0673,0.0689,0.0697,0.0683,0.0677,0.0684,0.0748,0.0747,0.0746,0.0757,0.0757,0.0757,0,0,0.0307,0.0343,0.031,0.0317,0.0337,0.0364,0.0358,0.0398,0.043,0.0432,0.05,0.054,0.0565,0.0612,0.0639,0.0607,0.066,0.0612,0.0572,0.063,0.063,0.0631,0.0652,0.0656,0.0607,0.0607,0.0607,0,0.0271,0.024,0.0297,0.026,0.0256,0.0328,0.028,0.0315,0.0353,0.0393,0.0409,0.0509,0.0542,0.0589,0.0578,0.0592,0.0624,0.0595,0.0621,0.0623,0.0625,0.0648,0.0653,0.0602,0.0603,0.0603,0.0604,0,0.0174,0.0144,0.0119,0.0102,0.0104,0.0071,0.0126,0.0145,0.0199,0.0259,0.0324,0.0392,0.0462,0.0476,0.0513,0.0551,0.0566,0.0605,0.064,0.0619,0.0643,0.065,0.0596,0.0597,0.0599,0.06,0,0,0.0099,0.0058,0.0047,0.0018,0.0018,0.0012,0.0011,0.0052,0.0095,0.0151,0.0209,0.0278,0.0361,0.0398,0.0466,0.0515,0.0541,0.0555,0.0561,0.0571,0.0645,0.0643,0.065,0.0587,0.0588,0.0589,0.0645,0,-0.0001,-0.0108,-0.0091,-0.0181,-0.0229,-0.0157,-0.0141,-0.008,-0.0005,0.0067,0.019,0.0259,0.032,0.0363,0.0422,0.0528,0.0559,0.0521,0.067,0.0674,0.0671,0.0659,0.0681,0.0732,0.0652,0.0653,0.0654,0,-0.0106,-0.0163,-0.0275,-0.029,-0.0295,-0.032,-0.0255,-0.0233,-0.0096,-0.0018,0.0085,0.0187,0.0285,0.0332,0.0493,0.0467,0.0537,0.061,0.0615,0.0654,0.0685,0.0749,0.0748,0.0889,0.0665,0.0664,0.0663,0,-0.0192,-0.0281,-0.0371,-0.039,-0.0397,-0.0393,-0.0372,-0.0256,-0.0185,-0.0072,0.0002,0.0135,0.0226,0.0336,0.0489,0.0492,0.0655,0.0683,0.0739,0.0739,0.081,0.0813,0.0964,0.077,0.077,0.077,0.077,0,-0.0305,-0.0372,-0.0414,-0.0467,-0.0508,-0.0468,-0.0447,-0.0383,-0.0252,-0.0152,-0.0043,0.006,0.0237,0.0363,0.0469,0.0627,0.0642,0.073,0.0761,0.0774,0.0774,0.0942,0.0998,0.0772,0.0772,0.0771,0.0771,0,-0.0388,-0.0428,-0.0524,-0.0559,-0.0561,-0.0583,-0.0507,-0.0449,-0.033,-0.0208,-0.0168,0.0023,0.0177,0.0332,0.0518,0.0618,0.0829,0.0789,0.077,0.0797,0.0971,0.1019,0.1176,0.1262,0.0859,0.086,0.086,0,-0.044,-0.0509,-0.0596,-0.0632,-0.0655,-0.0661,-0.0622,-0.0507,-0.0414,-0.0213,-0.0136,0.002,0.0146,0.0392,0.0581,0.0741,0.0854,0.086,0.0873,0.0983,0.1061,0.1088,0.1151,0.0921,0.0922,0.0922,0.0923,0,-0.0531,-0.0562,-0.0635,-0.0715,-0.0727,-0.0718,-0.0652,-0.058,-0.0396,-0.0293,-0.0126,-0.004,0.0207,0.0417,0.0628,0.0733,0.0963,0.0876,0.1024,0.1145,0.1155,0.125,0.0854,0.0929,0.0928,0.0928,0.0927,0.0927,-0.057,-0.0636,-0.0718,-0.0784,-0.0793,-0.0743,-0.0695,-0.0591,-0.0465,-0.0269,-0.0169,-0.0021,0.0312,0.061,0.075,0.1053,0.102,0.1141,0.1193,0.1213,0.1295,0.088,0.097,0.097,0.0969,0.0969,0.0969,0,-0.0617,-0.0684,-0.0762,-0.0819,-0.0816,-0.08,-0.0675,-0.0591,-0.0457,-0.0318,-0.0202,0.0158,0.0467,0.0791,0.1207,0.1378,0.1437,0.1454,0.1531,0.1585,0.126,0.1265,0.1382,0.1382,0.1382,0.1382,0.1381,0.1381,-0.0642,-0.0738,-0.0787,-0.082,-0.0827,-0.0736,-0.0652,-0.0563,-0.0433,-0.0233,-0.0036,0.0129,0.0609,0.1268,0.1675,0.1713,0.1898,0.1845,0.1948,0.1755,0.1731,0.1708,0.1729,0.1942,0.1942,0.2273,0.2276,0.2279]}],[{"header":{"parameterUnit":"m.s-1","parameterCategory":2,"la1":30.2991,"la2":30.254,"lo1":-89.0895,"lo2":-89.0444,"dy":0.0017,"dx":0.0017,"nx":28,"ny":28,"refTime":"2023-08-24T21:00:00:Z","depth":"2","parameterNumber":2,"parameterNumberName":"U-component_of_CURRENTS"},"data":[0,0,0,0,0,0,0,0,0,0,0,0,0,0,0,0,0,0,0,0,0,0,0,0,0,0,0,0,0,0,0,0,0,0,0,0,0,0,0,0,0,0,0,0,0,0,0,0,0,0,0,0,0,0,0,0,0,0,-0.2598,-0.2598,0,-0.2608,-0.2608,-0.2608,-0.2558,-0.2557,-0.2556,-0.2554,-0.2434,-0.2432,-0.243,0,0,0,0,0,0,0,0,0,0,0,0,0,-0.2495,-0.2497,-0.2598,-0.2598,-0.2599,-0.2608,-0.2608,-0.2608,-0.2558,-0.2557,-0.2555,-0.2554,-0.2435,-0.2432,-0.243,0,0,0,0,0,0,0,0,0,0,0,0,0,-0.2524,-0.2498,-0.2598,-0.2576,-0.2575,-0.2608,-0.2608,-0.2608,-0.2559,-0.2557,-0.2555,-0.2553,-0.2436,-0.2433,-0.243,-0.2449,0,0,-0.242,-0.2419,0,0,0,0,0,0,0,0,-0.2523,-0.2528,-0.2579,-0.2578,-0.2576,-0.2581,-0.2528,-0.2549,-0.2559,-0.2563,-0.2554,-0.2552,-0.2474,-0.2468,-0.2473,-0.2444,-0.2439,-0.242,-0.2418,-0.2417,-0.2416,0,0,0,0,0,0,0,-0.2521,-0.2527,-0.26,-0.258,-0.2578,-0.2552,-0.2554,-0.2532,-0.2525,-0.2562,-0.2559,-0.2564,-0.2471,-0.2476,-0.2469,-0.2437,-0.242,-0.2418,-0.2416,-0.2414,-0.2388,-0.2389,0,0,0,0,0,0,-0.2528,-0.2526,-0.26,-0.2601,-0.2546,-0.2556,-0.2558,-0.258,-0.2528,-0.252,-0.2566,-0.2562,-0.2482,-0.2473,-0.2465,-0.2485,-0.2417,-0.2414,-0.2412,-0.2387,-0.2388,-0.239,0,0,0,0,0,0,-0.2526,-0.2535,-0.26,-0.2563,-0.257,-0.256,-0.2585,-0.2581,-0.2584,-0.2532,-0.2521,-0.2571,-0.248,-0.2469,-0.2445,-0.2479,-0.2413,-0.241,-0.2386,-0.2388,-0.2389,-0.2524,0,0,0,0,0,0,-0.2524,-0.2535,-0.256,-0.2565,-0.2572,-0.2632,-0.2587,-0.2583,-0.2591,-0.2586,-0.2534,-0.2521,-0.2478,-0.245,-0.2443,-0.2474,-0.2408,-0.2384,-0.2387,-0.2389,-0.2518,-0.253,-0.254,0,0,0,0,0,-0.252,-0.2549,-0.2561,-0.257,-0.2605,-0.2634,-0.2637,-0.262,-0.2593,-0.2612,-0.2565,-0.2522,-0.2458,-0.2449,-0.244,-0.2471,-0.2383,-0.2386,-0.2388,-0.2513,-0.2528,-0.254,0,0,0,0,0,0,-0.2506,-0.2548,-0.256,-0.2599,-0.2627,-0.2627,-0.2643,-0.2631,-0.2614,-0.2598,-0.2538,-0.2524,-0.2514,-0.2474,-0.2466,-0.2467,-0.2413,-0.2414,-0.2511,-0.2524,-0.2535,-0.2517,-0.2405,0,0,0,0,0,-0.2523,-0.2563,-0.2593,-0.2628,-0.2647,-0.2651,-0.2661,-0.2652,-0.2636,-0.2627,-0.2581,-0.2538,-0.2521,-0.2507,-0.2473,-0.2481,-0.2407,-0.2492,-0.2503,-0.2513,-0.2491,-0.2432,-0.2435,-0.2398,-0.2398,-0.2398,0,0,-0.2528,-0.2556,-0.2579,-0.263,-0.2649,-0.268,-0.2651,-0.2674,-0.2685,-0.2616,-0.26,-0.257,-0.2529,-0.2533,-0.2526,-0.2503,-0.2486,-0.2516,-0.2526,-0.2497,-0.2435,-0.2438,-0.2441,-0.24,-0.2399,-0.2399,0,0,-0.2522,-0.2589,-0.2601,-0.2647,-0.2684,-0.2705,-0.2716,-0.2719,-0.271,-0.2706,-0.2661,-0.2654,-0.2606,-0.2599,-0.2588,-0.2641,-0.2543,-0.263,-0.2678,-0.2623,-0.2625,-0.2626,-0.2541,-0.2533,-0.2641,-0.2642,-0.2642,0,-0.2509,-0.2549,-0.2609,-0.2638,-0.268,-0.2719,-0.2742,-0.2761,-0.2744,-0.2712,-0.2707,-0.2659,-0.2641,-0.2657,-0.2681,-0.2669,-0.2595,-0.2639,-0.2637,-0.2637,-0.2635,-0.2547,-0.2537,-0.2648,-0.2648,-0.2647,-0.2646,0,-0.2509,-0.2556,-0.2578,-0.2642,-0.2702,-0.2738,-0.2791,-0.2793,-0.2787,-0.2769,-0.276,-0.2765,-0.2723,-0.2749,-0.2732,-0.2734,-0.267,-0.2657,-0.2606,-0.2647,-0.2552,-0.2539,-0.2658,-0.2656,-0.2654,-0.2652,0,0,-0.2443,-0.2542,-0.2552,-0.2577,-0.2711,-0.2736,-0.2791,-0.2806,-0.2775,-0.2803,-0.2758,-0.2813,-0.2795,-0.2784,-0.2796,-0.278,-0.2738,-0.2718,-0.2712,-0.2636,-0.2573,-0.2503,-0.248,-0.2716,-0.2714,-0.2713,-0.2512,0,-0.2413,-0.2438,-0.2521,-0.2581,-0.2622,-0.2708,-0.2742,-0.2769,-0.278,-0.2741,-0.2781,-0.2761,-0.2823,-0.2814,-0.282,-0.2744,-0.2707,-0.2791,-0.2539,-0.2531,-0.2467,-0.2465,-0.2329,-0.2135,-0.2498,-0.2496,-0.2494,0,-0.2397,-0.2421,-0.2456,-0.2529,-0.2549,-0.2606,-0.2656,-0.2674,-0.2675,-0.2668,-0.2699,-0.2701,-0.2734,-0.2762,-0.2698,-0.2739,-0.2654,-0.2608,-0.2598,-0.2467,-0.2436,-0.215,-0.2096,-0.2471,-0.2473,-0.2474,-0.2476,0,-0.2306,-0.2383,-0.2398,-0.2445,-0.2534,-0.2555,-0.2596,-0.2638,-0.2618,-0.2629,-0.2605,-0.2644,-0.2641,-0.2599,-0.2559,-0.2596,-0.2426,-0.2459,-0.2316,-0.2308,-0.2107,-0.2085,-0.2358,-0.2358,-0.2358,-0.2359,-0.2359,0,-0.2252,-0.2274,-0.2362,-0.2361,-0.2383,-0.249,-0.2481,-0.2505,-0.2527,-0.2483,-0.2569,-0.2554,-0.2591,-0.2524,-0.2491,-0.236,-0.2372,-0.2295,-0.2249,-0.2152,-0.2137,-0.2363,-0.2366,-0.2351,-0.2353,-0.2354,-0.2356,0,-0.2162,-0.2216,-0.2227,-0.2296,-0.234,-0.2352,-0.2427,-0.2385,-0.2445,-0.2404,-0.2409,-0.2437,-0.2363,-0.2365,-0.2252,-0.2244,-0.2141,-0.2074,-0.1952,-0.1897,-0.207,-0.2083,-0.1893,-0.1888,-0.1885,-0.1882,-0.1879,0,-0.2093,-0.2087,-0.215,-0.2168,-0.2215,-0.2264,-0.2274,-0.234,-0.2318,-0.2326,-0.2278,-0.2229,-0.216,-0.2006,-0.1956,-0.1846,-0.1958,-0.1673,-0.175,-0.2046,-0.2021,-0.204,-0.2057,-0.1525,-0.152,-0.1516,-0.1512,0,-0.1947,-0.198,-0.1985,-0.2027,-0.2064,-0.2071,-0.2111,-0.2083,-0.2124,-0.2098,-0.203,-0.1976,-0.1867,-0.1708,-0.1607,-0.1549,-0.1704,-0.1583,-0.1872,-0.1693,-0.1691,-0.1671,-0.1701,-0.1475,-0.1478,-0.1481,-0.1483,-0.1485,-0.184,-0.1817,-0.183,-0.1871,-0.1908,-0.1881,-0.1807,-0.1839,-0.1769,-0.1706,-0.1752,-0.1639,-0.1634,-0.1399,-0.1307,-0.1262,-0.1389,-0.1373,-0.1389,-0.1409,-0.1431,-0.1427,-0.1161,-0.1163,-0.1164,-0.1166,-0.1167,0,-0.1691,-0.1689,-0.1675,-0.1686,-0.1637,-0.1729,-0.168,-0.1582,-0.146,-0.1461,-0.1394,-0.1237,-0.1117,-0.1122,-0.0985,-0.0966,-0.0987,-0.0945,-0.0988,-0.1024,-0.1057,-0.1067,-0.0697,-0.0695,-0.0694,-0.0693,0,0,-0.1612,-0.1546,-0.1532,-0.1429,-0.1434,-0.131,-0.1239,-0.1165,-0.1131,-0.1018,-0.0975,-0.1044,-0.1081,-0.0891,-0.0844,-0.0748,-0.0881,-0.0708,-0.1083,-0.1169,-0.12,-0.1296,-0.135,0,0,0,0,0]},{"header":{"parameterUnit":"m.s-1","parameterCategory":2,"la1":30.2991,"la2":30.254,"lo1":-89.0895,"lo2":-89.0444,"dy":0.0017,"dx":0.0017,"nx":28,"ny":28,"refTime":"2023-08-24T21:00:00:Z","depth":"2","parameterNumber":3,"parameterNumberName":"V-component_of_CURRENTS"},"data":[0,0,0,0,0,0,0,0,0,0,0,0,0,0,0,0,0,0,0,0,0,0,0,0,0,0,0,0,0,0,0,0,0,0,0,0,0,0,0,0,0,0,0,0,0,0,0,0,0,0,0,0,0,0,0,0,0,0,-0.0108,-0.0106,0,0.0001,0.0002,0.0003,0.0008,0.0007,0.0006,0.0005,0.0022,0.0024,0.0025,0,0,0,0,0,0,0,0,0,0,0,0,0,-0.0261,-0.0259,-0.0108,-0.0106,-0.0105,0.0,0.0002,0.0003,0.0009,0.0007,0.0006,0.0005,0.0022,0.0023,0.0025,0,0,0,0,0,0,0,0,0,0,0,0,0,-0.0179,-0.0258,-0.0108,-0.0089,-0.0086,0.0,0.0002,0.0003,0.0009,0.0007,0.0006,0.0004,0.0021,0.0023,0.0025,0.0074,0,0,0.0032,0.0033,0,0,0,0,0,0,0,0,-0.0184,-0.0174,-0.0093,-0.009,-0.0086,-0.001,-0.0046,0.0023,0.0009,-0.0028,0.0005,0.0003,0.0005,0.0009,0.0032,0.0075,0.0075,0.0033,0.0034,0.0035,0.0036,0,0,0,0,0,0,0,-0.0189,-0.0178,-0.0066,-0.0091,-0.0087,-0.0068,-0.0059,-0.0032,-0.0006,-0.0025,-0.0024,-0.0009,0.0006,0.003,0.0032,0.0076,0.0033,0.0035,0.0036,0.0037,0.0143,0.0145,0,0,0,0,0,0,-0.02,-0.0183,-0.007,-0.0063,-0.0139,-0.0064,-0.0054,-0.0034,-0.0004,-0.0,-0.0008,-0.001,0.0027,0.003,0.0033,0.0076,0.0035,0.0037,0.0038,0.0142,0.0144,0.0145,0,0,0,0,0,0,-0.0204,-0.0191,-0.0074,-0.012,-0.0104,-0.006,-0.0037,-0.003,-0.0016,0.001,0.0011,-0.0002,0.0026,0.003,0.0052,0.0076,0.0038,0.004,0.014,0.0142,0.0144,0.0171,0,0,0,0,0,0,-0.0209,-0.0193,-0.0187,-0.0121,-0.0102,-0.0027,-0.0035,-0.0027,-0.0003,-0.0004,0.0016,0.0017,0.0025,0.0049,0.0055,0.0079,0.0042,0.0138,0.0141,0.0144,0.0168,0.0173,0.0178,0,0,0,0,0,-0.0214,-0.0201,-0.0187,-0.0173,-0.0093,-0.0026,-0.0014,0.001,-0.0001,0.0014,0.0024,0.0016,0.007,0.0052,0.0058,0.0084,0.0137,0.014,0.0144,0.0166,0.0172,0.0178,0,0,0,0,0,0,-0.0273,-0.0197,-0.0181,-0.0148,-0.0092,-0.0025,-0.0009,0.0009,0.0033,0.0021,0.0034,0.0037,0.0063,0.0075,0.0054,0.0124,0.0103,0.0108,0.0118,0.0124,0.013,0.0102,0.0044,0,0,0,0,0,-0.0278,-0.025,-0.0172,-0.015,-0.0119,-0.0065,-0.0038,-0.0017,0.0018,0.0027,0.0042,0.0061,0.0089,0.0103,0.0123,0.0166,0.0165,0.0188,0.0193,0.0197,0.0181,0.0215,0.0221,0.0156,0.0156,0.0156,0,0,-0.0301,-0.0252,-0.024,-0.016,-0.0118,-0.0079,-0.0054,-0.0011,0.0009,0.0025,0.0044,0.0072,0.0101,0.0143,0.0158,0.0153,0.0217,0.0201,0.0205,0.0185,0.0219,0.0225,0.023,0.0158,0.0158,0.0158,0,0,-0.0331,-0.0278,-0.0267,-0.0215,-0.0145,-0.0095,-0.0085,-0.0015,0.0004,0.0043,0.0057,0.0103,0.0138,0.0179,0.02,0.0249,0.0236,0.0254,0.0268,0.0302,0.0307,0.0311,0.0321,0.0326,0.0266,0.0267,0.0267,0,-0.0369,-0.0337,-0.0255,-0.0226,-0.0195,-0.0108,-0.0093,-0.004,0.002,0.0025,0.0042,0.0125,0.0158,0.022,0.0241,0.0261,0.0259,0.0241,0.0307,0.0311,0.0315,0.0324,0.0329,0.0268,0.0268,0.0268,0.0268,0,-0.038,-0.0362,-0.0346,-0.0281,-0.0227,-0.0198,-0.0107,-0.0072,-0.0034,0.0004,0.0065,0.0148,0.019,0.0232,0.0251,0.031,0.0292,0.0301,0.0285,0.0323,0.0331,0.0335,0.0271,0.027,0.0269,0.0269,0,0,-0.0456,-0.0379,-0.0376,-0.0372,-0.026,-0.0224,-0.0171,-0.0112,-0.0105,-0.0007,0.0011,0.0128,0.0175,0.0205,0.0271,0.0326,0.0375,0.0323,0.0324,0.0321,0.0423,0.0434,0.044,0.0387,0.0388,0.0389,0.0418,0,-0.0503,-0.0494,-0.0423,-0.0414,-0.0402,-0.0304,-0.0265,-0.0198,-0.0132,-0.0088,0.0034,0.0084,0.0169,0.0206,0.028,0.0337,0.0387,0.0364,0.0395,0.0396,0.0393,0.0447,0.0426,0.0451,0.0422,0.0423,0.0424,0,-0.0539,-0.0532,-0.054,-0.0505,-0.0488,-0.0458,-0.0393,-0.0346,-0.0247,-0.0197,-0.0094,-0.0012,0.0113,0.0174,0.0318,0.0292,0.0351,0.0409,0.0411,0.0409,0.0417,0.0411,0.0461,0.0431,0.0431,0.043,0.043,0,-0.0638,-0.0615,-0.0635,-0.0616,-0.0546,-0.054,-0.0497,-0.0402,-0.0361,-0.0263,-0.022,-0.0075,0.0016,0.0121,0.0277,0.0279,0.041,0.0426,0.0495,0.0495,0.0477,0.0474,0.0507,0.0507,0.0507,0.0506,0.0506,0,-0.0705,-0.0728,-0.0694,-0.0701,-0.0729,-0.0639,-0.0629,-0.0573,-0.047,-0.0416,-0.0279,-0.0188,0.0006,0.0123,0.0237,0.0388,0.0384,0.0496,0.0511,0.0487,0.0486,0.0463,0.0458,0.0508,0.0507,0.0507,0.0507,0,-0.0794,-0.0773,-0.0807,-0.0779,-0.0773,-0.079,-0.0706,-0.0688,-0.0585,-0.05,-0.0464,-0.0278,-0.012,0.0062,0.0235,0.0345,0.0472,0.0519,0.0472,0.0482,0.0535,0.0531,0.0586,0.0587,0.0588,0.0588,0.0589,0,-0.0836,-0.086,-0.0876,-0.0898,-0.0887,-0.0882,-0.0865,-0.0761,-0.071,-0.0538,-0.0502,-0.0332,-0.0183,0.0071,0.0277,0.0465,0.0484,0.0542,0.0563,0.0538,0.0547,0.0542,0.0537,0.0547,0.0547,0.0547,0.0547,0,-0.0914,-0.092,-0.0943,-0.0993,-0.1004,-0.0999,-0.0959,-0.0934,-0.0784,-0.0703,-0.0561,-0.0443,-0.015,0.008,0.0332,0.0438,0.0512,0.055,0.0545,0.0532,0.0505,0.0512,0.0508,0.0548,0.0548,0.0548,0.0547,0.0547,-0.0968,-0.1007,-0.1033,-0.1077,-0.1098,-0.1099,-0.1074,-0.1,-0.0929,-0.0738,-0.0629,-0.0401,-0.0155,0.0218,0.0386,0.0545,0.0544,0.0589,0.0587,0.0586,0.0579,0.0554,0.0604,0.0604,0.0604,0.0604,0.0604,0,-0.1015,-0.1047,-0.1101,-0.114,-0.1161,-0.1155,-0.1108,-0.1038,-0.0944,-0.0755,-0.0583,-0.0312,-0.0045,0.0205,0.0466,0.061,0.0601,0.062,0.0591,0.0589,0.0587,0.0579,0.0605,0.0606,0.0606,0.0607,0,0,-0.1037,-0.109,-0.1112,-0.1169,-0.119,-0.1173,-0.114,-0.104,-0.0886,-0.0705,-0.0511,-0.0264,0.0012,0.0197,0.0374,0.0507,0.0508,0.0509,0.0491,0.0434,0.0431,0.0551,0.0535,0,0,0,0,0]}],[{"header":{"parameterUnit":"m.s-1","parameterCategory":2,"la1":30.2991,"la2":30.254,"lo1":-89.0895,"lo2":-89.0444,"dy":0.0017,"dx":0.0017,"nx":28,"ny":28,"refTime":"2023-08-24T21:00:00:Z","depth":"4","parameterNumber":2,"parameterNumberName":"U-component_of_CURRENTS"},"data":[0,0,0,0,0,0,0,0,0,0,0,0,0,0,0,0,0,0,0,0,0,0,0,0,0,0,0,0,0,0,0,0,0,0,0,0,0,0,0,0,0,0,0,0,0,0,0,0,0,0,0,0,0,0,0,0,0,0,-0.1052,-0.1053,0,-0.11,-0.1101,-0.1102,-0.1121,-0.1121,-0.1121,-0.1121,-0.113,-0.113,-0.1131,0,0,0,0,0,0,0,0,0,0,0,0,0,-0.0976,-0.0977,-0.1052,-0.1053,-0.1053,-0.11,-0.1101,-0.1102,-0.1121,-0.1121,-0.1121,-0.1121,-0.113,-0.113,-0.1131,0,0,0,0,0,0,0,0,0,0,0,0,0,-0.1015,-0.0978,-0.1052,-0.1069,-0.1071,-0.11,-0.1101,-0.1102,-0.1121,-0.1121,-0.1121,-0.1121,-0.113,-0.113,-0.1131,-0.1136,0,0,-0.1132,-0.1132,0,0,0,0,0,0,0,0,-0.1013,-0.1018,-0.1066,-0.1068,-0.107,-0.1105,-0.1078,-0.1111,-0.1121,-0.1102,-0.1121,-0.1121,-0.1118,-0.112,-0.1129,-0.1136,-0.1137,-0.1132,-0.1133,-0.1133,-0.1133,0,0,0,0,0,0,0,-0.101,-0.1016,-0.1071,-0.1067,-0.1069,-0.1074,-0.108,-0.1084,-0.1109,-0.1103,-0.1105,-0.1111,-0.1119,-0.1129,-0.1129,-0.1137,-0.1132,-0.1133,-0.1133,-0.1133,-0.1227,-0.1229,0,0,0,0,0,0,-0.1005,-0.1013,-0.1069,-0.1072,-0.1041,-0.1076,-0.1082,-0.1094,-0.111,-0.1113,-0.1111,-0.1112,-0.1128,-0.1129,-0.113,-0.1197,-0.1133,-0.1133,-0.1133,-0.1225,-0.1228,-0.123,0,0,0,0,0,0,-0.1004,-0.101,-0.1067,-0.1044,-0.1051,-0.1077,-0.109,-0.1095,-0.1118,-0.1116,-0.1118,-0.1132,-0.1128,-0.1129,-0.1156,-0.1195,-0.1133,-0.1134,-0.1222,-0.1226,-0.1229,-0.1292,0,0,0,0,0,0,-0.1001,-0.1009,-0.1026,-0.1044,-0.1053,-0.1094,-0.1091,-0.1096,-0.1121,-0.1123,-0.1134,-0.1134,-0.1128,-0.1155,-0.1156,-0.1194,-0.1134,-0.1219,-0.1224,-0.1228,-0.1287,-0.1297,-0.1305,0,0,0,0,0,-0.0998,-0.1019,-0.1026,-0.1033,-0.1071,-0.1094,-0.11,-0.1117,-0.1123,-0.1137,-0.1152,-0.1135,-0.1183,-0.1157,-0.1158,-0.1197,-0.1217,-0.1223,-0.1227,-0.1283,-0.1295,-0.1305,0,0,0,0,0,0,-0.0992,-0.1024,-0.1032,-0.1061,-0.108,-0.1098,-0.1118,-0.1127,-0.1151,-0.1158,-0.1154,-0.1155,-0.1197,-0.119,-0.1162,-0.124,-0.1201,-0.1207,-0.1243,-0.1255,-0.1264,-0.1236,-0.1135,0,0,0,0,0,-0.0999,-0.1028,-0.1048,-0.1073,-0.1084,-0.1104,-0.1119,-0.1131,-0.115,-0.1162,-0.1174,-0.1193,-0.1218,-0.1229,-0.1245,-0.1278,-0.1262,-0.1309,-0.1318,-0.1326,-0.1307,-0.1343,-0.1353,-0.1246,-0.1246,-0.1246,0,0,-0.1003,-0.1026,-0.1041,-0.1075,-0.1092,-0.1115,-0.1113,-0.1143,-0.1167,-0.1158,-0.1203,-0.1223,-0.1235,-0.128,-0.1298,-0.1278,-0.1349,-0.1332,-0.1339,-0.1314,-0.1349,-0.1359,-0.1368,-0.125,-0.1249,-0.1249,0,0,-0.1019,-0.1046,-0.1071,-0.1091,-0.1123,-0.1137,-0.1148,-0.1178,-0.1198,-0.1237,-0.1249,-0.1283,-0.132,-0.1337,-0.1348,-0.1415,-0.1397,-0.1442,-0.1463,-0.15,-0.1508,-0.1515,-0.1504,-0.151,-0.1446,-0.1446,-0.1446,0,-0.1022,-0.1055,-0.108,-0.1106,-0.1125,-0.1147,-0.1169,-0.1197,-0.1235,-0.1256,-0.1259,-0.1331,-0.134,-0.139,-0.1422,-0.1432,-0.1441,-0.1418,-0.151,-0.1517,-0.1523,-0.151,-0.1515,-0.145,-0.1449,-0.1449,-0.1449,0,-0.1048,-0.108,-0.1096,-0.1138,-0.1162,-0.1188,-0.122,-0.1253,-0.1282,-0.1308,-0.1367,-0.1388,-0.1428,-0.1453,-0.1455,-0.152,-0.1508,-0.1517,-0.1475,-0.1537,-0.152,-0.1524,-0.1455,-0.1454,-0.1453,-0.1452,0,0,-0.1031,-0.11,-0.1107,-0.113,-0.118,-0.12,-0.1247,-0.129,-0.1327,-0.1371,-0.1423,-0.1467,-0.1488,-0.1502,-0.1525,-0.1551,-0.1605,-0.156,-0.1561,-0.1535,-0.1667,-0.1545,-0.1537,-0.1649,-0.165,-0.1652,-0.1635,0,-0.1039,-0.1091,-0.1125,-0.1173,-0.1195,-0.1235,-0.1279,-0.1326,-0.1367,-0.1431,-0.1462,-0.1524,-0.1508,-0.1549,-0.1573,-0.1605,-0.1621,-0.1606,-0.1621,-0.1619,-0.1493,-0.1539,-0.1656,-0.1638,-0.1639,-0.164,-0.164,0,-0.1039,-0.1077,-0.1125,-0.1191,-0.1206,-0.1242,-0.1308,-0.1357,-0.144,-0.1477,-0.153,-0.1572,-0.1621,-0.1614,-0.1648,-0.165,-0.1658,-0.1664,-0.1665,-0.1523,-0.1505,-0.1566,-0.1647,-0.1647,-0.1646,-0.1646,-0.1645,0,-0.1001,-0.1071,-0.1111,-0.1134,-0.1215,-0.1246,-0.1295,-0.137,-0.141,-0.1522,-0.1551,-0.1625,-0.1659,-0.169,-0.1687,-0.1695,-0.1714,-0.1727,-0.1609,-0.16,-0.1684,-0.1677,-0.175,-0.175,-0.175,-0.175,-0.175,0,-0.0981,-0.1013,-0.1101,-0.1123,-0.1175,-0.124,-0.1299,-0.1361,-0.1446,-0.1479,-0.1577,-0.1591,-0.1687,-0.1705,-0.171,-0.1648,-0.1728,-0.1598,-0.1591,-0.1711,-0.1708,-0.1686,-0.1679,-0.175,-0.175,-0.175,-0.175,0,-0.0927,-0.0989,-0.1038,-0.1129,-0.1158,-0.12,-0.1286,-0.1313,-0.1409,-0.1453,-0.1492,-0.1584,-0.16,-0.1645,-0.1694,-0.1643,-0.1628,-0.1591,-0.1684,-0.1685,-0.1482,-0.1479,-0.1457,-0.1452,-0.1449,-0.1445,-0.1443,0,-0.0903,-0.0926,-0.1028,-0.1053,-0.1094,-0.1159,-0.1184,-0.1288,-0.1303,-0.1404,-0.1401,-0.1475,-0.1513,-0.1466,-0.1539,-0.1537,-0.1524,-0.1505,-0.1512,-0.1458,-0.1454,-0.1457,-0.1459,-0.1437,-0.1436,-0.1435,-0.1434,0,-0.0849,-0.0896,-0.0936,-0.0987,-0.1021,-0.1052,-0.1096,-0.1107,-0.1201,-0.1282,-0.129,-0.1323,-0.1334,-0.1383,-0.1393,-0.139,-0.1519,-0.1467,-0.1475,-0.1481,-0.1434,-0.1435,-0.1441,-0.1421,-0.1423,-0.1424,-0.1425,0,-0.08,-0.0817,-0.087,-0.0905,-0.0936,-0.093,-0.0978,-0.0987,-0.1029,-0.1141,-0.1134,-0.1212,-0.1303,-0.1302,-0.1304,-0.1301,-0.1289,-0.1261,-0.128,-0.1295,-0.1252,-0.117,-0.106,0,0,0,0,0,-0.0741,-0.075,-0.0777,-0.0805,-0.0823,-0.0843,-0.0897,-0.0944,-0.1028,-0.0995,-0.107,-0.1079,-0.1107,-0.1161,-0.1127,-0.1227,-0.1292,-0.1182,-0.1269,-0.135,-0.1365,-0.1332,0,0,0,0,0,0,-0.0704,-0.0727,-0.0745,-0.0695,-0.0692,-0.0696,-0.0733,-0.0798,-0.0798,-0.0901,-0.0928,-0.0999,-0.1051,-0.1104,-0.1099,-0.1112,-0.1142,-0.1236,-0.1233,-0.1342,-0.1355,-0.1367,-0.1338,0,0,0,0,0]},{"header":{"parameterUnit":"m.s-1","parameterCategory":2,"la1":30.2991,"la2":30.254,"lo1":-89.0895,"lo2":-89.0444,"dy":0.0017,"dx":0.0017,"nx":28,"ny":28,"refTime":"2023-08-24T21:00:00:Z","depth":"4","parameterNumber":3,"parameterNumberName":"V-component_of_CURRENTS"},"data":[0,0,0,0,0,0,0,0,0,0,0,0,0,0,0,0,0,0,0,0,0,0,0,0,0,0,0,0,0,0,0,0,0,0,0,0,0,0,0,0,0,0,0,0,0,0,0,0,0,0,0,0,0,0,0,0,0,0,-0.023,-0.023,0,-0.0204,-0.0204,-0.0204,-0.0175,-0.0175,-0.0174,-0.0174,-0.0122,-0.0121,-0.012,0,0,0,0,0,0,0,0,0,0,0,0,0,-0.0252,-0.0252,-0.023,-0.023,-0.0229,-0.0204,-0.0204,-0.0204,-0.0175,-0.0174,-0.0174,-0.0173,-0.0122,-0.0121,-0.012,0,0,0,0,0,0,0,0,0,0,0,0,0,-0.0236,-0.0252,-0.023,-0.0212,-0.021,-0.0204,-0.0204,-0.0204,-0.0175,-0.0174,-0.0174,-0.0173,-0.0123,-0.0121,-0.012,-0.0125,0,0,-0.0116,-0.0115,0,0,0,0,0,0,0,0,-0.0237,-0.0236,-0.0215,-0.0213,-0.0211,-0.0192,-0.0193,-0.0176,-0.0175,-0.0189,-0.0174,-0.0173,-0.0143,-0.014,-0.0138,-0.0123,-0.012,-0.0116,-0.0115,-0.0114,-0.0114,0,0,0,0,0,0,0,-0.0238,-0.0237,-0.022,-0.0214,-0.0212,-0.0204,-0.0201,-0.019,-0.017,-0.0187,-0.0185,-0.0182,-0.0142,-0.0139,-0.0136,-0.012,-0.0116,-0.0114,-0.0114,-0.0113,-0.0114,-0.0115,0,0,0,0,0,0,-0.0242,-0.0238,-0.0221,-0.0219,-0.0222,-0.0204,-0.0201,-0.0199,-0.0171,-0.0166,-0.0183,-0.0181,-0.0142,-0.0138,-0.0134,-0.0156,-0.0114,-0.0113,-0.0112,-0.0113,-0.0114,-0.0115,0,0,0,0,0,0,-0.0242,-0.0241,-0.0222,-0.0227,-0.0224,-0.0204,-0.0202,-0.0199,-0.0196,-0.0167,-0.0162,-0.0184,-0.0141,-0.0136,-0.0137,-0.0153,-0.0112,-0.0111,-0.0112,-0.0114,-0.0115,-0.0187,0,0,0,0,0,0,-0.0243,-0.0241,-0.0245,-0.0228,-0.0224,-0.0228,-0.0203,-0.0199,-0.0195,-0.0192,-0.0166,-0.0161,-0.014,-0.0139,-0.0135,-0.015,-0.011,-0.0111,-0.0113,-0.0114,-0.0184,-0.0191,-0.0197,0,0,0,0,0,-0.0244,-0.0253,-0.0245,-0.0243,-0.0229,-0.0228,-0.0227,-0.021,-0.0196,-0.0203,-0.0189,-0.0162,-0.0147,-0.0139,-0.0134,-0.0149,-0.011,-0.0112,-0.0114,-0.0181,-0.0189,-0.0197,0,0,0,0,0,0,-0.0266,-0.025,-0.0241,-0.0245,-0.0241,-0.0224,-0.0227,-0.0215,-0.021,-0.0207,-0.0176,-0.0171,-0.0176,-0.0154,-0.0147,-0.0154,-0.0123,-0.0124,-0.0175,-0.0183,-0.0189,-0.0204,-0.0109,0,0,0,0,0,-0.0273,-0.0276,-0.026,-0.0267,-0.0263,-0.0246,-0.0244,-0.0236,-0.0226,-0.0222,-0.0205,-0.0189,-0.0181,-0.0176,-0.0164,-0.0171,-0.0121,-0.0176,-0.0182,-0.0188,-0.0198,-0.0129,-0.013,-0.0122,-0.0122,-0.0122,0,0,-0.0284,-0.0277,-0.0278,-0.0272,-0.0264,-0.0272,-0.0244,-0.0247,-0.0258,-0.0218,-0.0229,-0.0212,-0.0188,-0.0197,-0.0197,-0.0181,-0.0165,-0.0191,-0.0196,-0.0202,-0.0131,-0.0132,-0.0132,-0.0123,-0.0123,-0.0123,0,0,-0.0312,-0.03,-0.0312,-0.031,-0.0304,-0.0297,-0.03,-0.0289,-0.0287,-0.03,-0.0271,-0.0268,-0.0258,-0.0244,-0.0235,-0.0271,-0.0202,-0.0264,-0.031,-0.0244,-0.0244,-0.0243,-0.018,-0.0173,-0.0267,-0.0267,-0.0267,0,-0.0326,-0.0336,-0.0318,-0.0328,-0.0332,-0.0311,-0.0328,-0.0326,-0.0321,-0.032,-0.0315,-0.0298,-0.0282,-0.0281,-0.0302,-0.0286,-0.0234,-0.0283,-0.0252,-0.025,-0.0248,-0.0183,-0.0174,-0.0271,-0.027,-0.027,-0.027,0,-0.0359,-0.0369,-0.0376,-0.0382,-0.0386,-0.0399,-0.0391,-0.0397,-0.0394,-0.0387,-0.0391,-0.0374,-0.0356,-0.0358,-0.0349,-0.0332,-0.0295,-0.0266,-0.023,-0.0253,-0.0183,-0.0173,-0.0276,-0.0275,-0.0274,-0.0273,0,0,-0.0382,-0.0397,-0.0399,-0.0415,-0.0416,-0.0426,-0.0442,-0.0448,-0.0453,-0.0454,-0.0453,-0.0462,-0.0437,-0.0426,-0.0401,-0.0368,-0.0318,-0.0323,-0.0318,-0.026,-0.0166,-0.0164,-0.0151,-0.0275,-0.0274,-0.0273,-0.0122,0,-0.0413,-0.0452,-0.0447,-0.0487,-0.0505,-0.0492,-0.0511,-0.0513,-0.0507,-0.0499,-0.0478,-0.0469,-0.0464,-0.0454,-0.0421,-0.0343,-0.0295,-0.0362,-0.0154,-0.0149,-0.0142,-0.0141,-0.0269,-0.0114,-0.0112,-0.011,-0.0109,0,-0.0443,-0.0466,-0.0512,-0.0542,-0.0547,-0.0569,-0.0583,-0.0594,-0.0572,-0.0564,-0.0542,-0.0506,-0.0472,-0.0454,-0.0331,-0.0369,-0.0278,-0.0219,-0.021,-0.0177,-0.0128,-0.0086,-0.0089,-0.009,-0.0092,-0.0093,-0.0094,0,-0.0472,-0.051,-0.0553,-0.0563,-0.0591,-0.0611,-0.0623,-0.0616,-0.0626,-0.0589,-0.0583,-0.0521,-0.0487,-0.038,-0.0269,-0.0284,-0.0114,-0.0102,-0.0012,-0.0009,-0.0023,-0.0025,0.0005,0.0005,0.0004,0.0004,0.0003,0,-0.0502,-0.0537,-0.0575,-0.0596,-0.065,-0.0649,-0.0686,-0.0683,-0.0671,-0.0676,-0.0614,-0.0591,-0.0466,-0.0359,-0.0252,-0.0103,-0.0082,-0.002,0.0028,-0.0057,-0.0065,-0.0014,-0.0019,0.0009,0.0008,0.0007,0.0006,0,-0.0524,-0.055,-0.0603,-0.0646,-0.0667,-0.0701,-0.0737,-0.075,-0.0735,-0.0732,-0.072,-0.0627,-0.048,-0.0341,-0.0149,-0.0082,0.0065,0.0124,0.0024,0.0065,0.0123,0.0113,0.0234,0.0236,0.0237,0.0238,0.0238,0,-0.0539,-0.057,-0.064,-0.0677,-0.0702,-0.0751,-0.078,-0.0786,-0.079,-0.0754,-0.0743,-0.0613,-0.0532,-0.0246,-0.0111,0.012,0.0141,0.0212,0.0145,0.011,0.0146,0.0134,0.0123,0.024,0.024,0.0241,0.0241,0,-0.0562,-0.059,-0.063,-0.0707,-0.0756,-0.0803,-0.0838,-0.0845,-0.0836,-0.0836,-0.0732,-0.0599,-0.0427,-0.0229,-0.0041,0.0112,0.0153,0.0224,0.0222,0.0159,0.0119,0.0151,0.0139,0.0245,0.0244,0.0244,0.0244,0,-0.0574,-0.061,-0.0663,-0.0727,-0.0789,-0.0821,-0.0845,-0.0828,-0.0826,-0.0781,-0.0743,-0.0568,-0.0469,-0.023,-0.0065,0.0092,0.0112,0.0131,0.0134,0.0132,0.0039,-0.0031,0.0092,0,0,0,0,0,-0.0574,-0.0615,-0.0678,-0.0744,-0.0799,-0.0831,-0.0864,-0.0872,-0.0871,-0.0795,-0.0765,-0.0597,-0.0352,-0.0242,-0.0078,-0.0062,0.0125,0.0127,0.0145,0.0266,0.0261,0.0167,0,0,0,0,0,0,-0.058,-0.0637,-0.0673,-0.0734,-0.0776,-0.083,-0.0846,-0.085,-0.0791,-0.0771,-0.0618,-0.058,-0.0317,-0.0431,-0.0077,-0.0036,-0.0011,0.0239,0.0241,0.0268,0.0264,0.0261,0.0163,0,0,0,0,0]}]]